Time,TemperatureF,DewpointF,PressureIn,WindDirection,WindDirectionDegrees,WindSpeedMPH,WindSpeedGustMPH,Humidity,HourlyPrecipIn,Conditions,Clouds,dailyrainin,SoftwareType,DateUTC
2013-03-08 00:04:00,40.0,38.1,30.16,NNW,336,0.0,1.0,93,0.00,,,0.14,Wunderground v.1.15,2013-03-08 08:04:00,
2013-03-08 00:09:00,39.9,38.0,30.16,NNW,336,0.0,0.0,93,0.00,,,0.14,Wunderground v.1.15,2013-03-08 08:09:00,
2013-03-08 00:15:00,39.8,37.9,30.16,NNW,337,0.0,0.0,93,0.00,,,0.14,Wunderground v.1.15,2013-03-08 08:15:00,
2013-03-08 00:20:00,39.8,37.9,30.16,NNW,337,0.0,0.0,93,0.00,,,0.14,Wunderground v.1.15,2013-03-08 08:20:00,
2013-03-08 00:26:00,39.7,37.8,30.16,NNW,337,0.0,0.0,93,0.00,,,0.14,Wunderground v.1.15,2013-03-08 08:26:00,
2013-03-08 00:31:00,39.6,37.7,30.16,NNW,337,0.0,0.0,93,0.00,,,0.14,Wunderground v.1.15,2013-03-08 08:31:00,
2013-03-08 00:37:00,39.5,37.6,30.16,NNW,329,0.0,4.0,93,0.00,,,0.14,Wunderground v.1.15,2013-03-08 08:37:00,
2013-03-08 00:43:00,39.4,37.5,30.16,NNW,332,0.0,2.0,93,0.00,,,0.14,Wunderground v.1.15,2013-03-08 08:43:00,
2013-03-08 00:48:00,39.3,37.4,30.16,NNW,329,3.0,5.0,93,0.00,,,0.14,Wunderground v.1.15,2013-03-08 08:48:00,
2013-03-08 00:54:00,39.2,37.3,30.16,NNW,332,4.0,4.0,93,0.00,,,0.14,Wunderground v.1.15,2013-03-08 08:54:00,
2013-03-08 00:59:00,39.0,37.1,30.16,NW,326,5.0,5.0,93,0.00,,,0.14,Wunderground v.1.15,2013-03-08 08:59:00,
2013-03-08 01:05:00,38.9,37.0,30.16,NNW,327,2.0,5.0,93,0.00,,,0.14,Wunderground v.1.15,2013-03-08 09:05:00,
2013-03-08 01:10:00,38.8,36.9,30.16,NNW,330,2.0,2.0,93,0.00,,,0.14,Wunderground v.1.15,2013-03-08 09:10:00,
2013-03-08 01:16:00,38.7,36.9,30.16,NNW,332,0.0,4.0,93,0.00,,,0.14,Wunderground v.1.15,2013-03-08 09:16:00,
2013-03-08 01:21:00,38.7,36.9,30.16,NNW,332,0.0,1.0,93,0.00,,,0.14,Wunderground v.1.15,2013-03-08 09:21:00,
2013-03-08 01:27:00,38.6,36.8,30.16,NNW,332,0.0,1.0,93,0.00,,,0.14,Wunderground v.1.15,2013-03-08 09:27:00,
2013-03-08 01:33:00,38.4,36.6,30.16,NNW,332,0.0,0.0,93,0.00,,,0.14,Wunderground v.1.15,2013-03-08 09:33:00,
2013-03-08 01:38:00,38.3,36.5,30.16,NNW,332,0.0,0.0,93,0.00,,,0.14,Wunderground v.1.15,2013-03-08 09:38:00,
2013-03-08 01:44:00,38.2,36.4,30.16,NNW,331,0.0,0.0,93,0.00,,,0.14,Wunderground v.1.15,2013-03-08 09:44:00,
2013-03-08 01:49:00,38.2,36.4,30.16,NNW,331,0.0,0.0,93,0.00,,,0.14,Wunderground v.1.15,2013-03-08 09:49:00,
2013-03-08 01:55:00,38.1,36.3,30.16,NNW,328,0.0,0.0,93,0.00,,,0.14,Wunderground v.1.15,2013-03-08 09:55:00,
2013-03-08 02:00:00,38.0,36.2,30.16,NNW,328,0.0,0.0,93,0.00,,,0.14,Wunderground v.1.15,2013-03-08 10:00:00,
2013-03-08 02:05:00,37.9,36.1,30.16,NNW,329,0.0,0.0,93,0.00,,,0.14,Wunderground v.1.15,2013-03-08 10:05:00,
2013-03-08 02:10:00,37.9,36.1,30.16,NNW,338,0.0,0.0,93,0.00,,,0.14,Wunderground v.1.15,2013-03-08 10:10:00,
2013-03-08 02:15:00,37.9,36.1,30.16,NNW,329,3.0,4.0,93,0.00,,,0.14,Wunderground v.1.15,2013-03-08 10:15:00,
2013-03-08 02:20:00,37.8,36.0,30.16,NW,326,2.0,3.0,93,0.00,,,0.14,Wunderground v.1.15,2013-03-08 10:20:00,
2013-03-08 02:25:00,37.6,35.8,30.16,NW,325,3.0,3.0,93,0.00,,,0.14,Wunderground v.1.15,2013-03-08 10:25:00,
2013-03-08 02:30:00,37.5,35.7,30.16,NW,319,0.0,2.0,93,0.00,,,0.14,Wunderground v.1.15,2013-03-08 10:30:00,
2013-03-08 02:35:00,37.4,35.6,30.16,NW,321,0.0,2.0,93,0.00,,,0.14,Wunderground v.1.15,2013-03-08 10:35:00,
2013-03-08 02:40:00,37.3,35.5,30.16,NW,321,0.0,0.0,93,0.00,,,0.14,Wunderground v.1.15,2013-03-08 10:40:00,
2013-03-08 02:45:00,37.3,35.5,30.16,NW,321,0.0,0.0,93,0.00,,,0.14,Wunderground v.1.15,2013-03-08 10:45:00,
2013-03-08 02:50:00,37.2,35.4,30.16,NW,322,2.0,2.0,93,0.00,,,0.14,Wunderground v.1.15,2013-03-08 10:50:00,
2013-03-08 02:55:00,37.1,35.3,30.16,NW,325,0.0,3.0,93,0.00,,,0.14,Wunderground v.1.15,2013-03-08 10:55:00,
2013-03-08 03:01:00,37.1,35.3,30.16,NW,324,0.0,0.0,93,0.00,,,0.14,Wunderground v.1.15,2013-03-08 11:01:00,
2013-03-08 03:06:00,37.0,35.2,30.16,NW,324,0.0,0.0,93,0.00,,,0.14,Wunderground v.1.15,2013-03-08 11:06:00,
2013-03-08 03:11:00,37.0,35.2,30.16,NW,324,0.0,0.0,93,0.00,,,0.14,Wunderground v.1.15,2013-03-08 11:11:00,
2013-03-08 03:16:00,36.9,35.1,30.15,NW,324,0.0,0.0,93,0.00,,,0.14,Wunderground v.1.15,2013-03-08 11:16:00,
2013-03-08 03:21:00,36.9,35.1,30.15,NW,324,0.0,0.0,93,0.00,,,0.14,Wunderground v.1.15,2013-03-08 11:21:00,
2013-03-08 03:26:00,36.8,35.0,30.15,NW,325,0.0,0.0,93,0.00,,,0.14,Wunderground v.1.15,2013-03-08 11:26:00,
2013-03-08 03:31:00,36.7,34.9,30.15,NNW,327,0.0,0.0,93,0.00,,,0.14,Wunderground v.1.15,2013-03-08 11:31:00,
2013-03-08 03:36:00,36.6,34.8,30.15,NNW,329,0.0,0.0,93,0.00,,,0.14,Wunderground v.1.15,2013-03-08 11:36:00,
2013-03-08 03:41:00,36.5,34.7,30.15,NNW,330,0.0,0.0,93,0.00,,,0.14,Wunderground v.1.15,2013-03-08 11:41:00,
2013-03-08 03:46:00,36.4,34.6,30.15,NNW,330,0.0,0.0,93,0.00,,,0.14,Wunderground v.1.15,2013-03-08 11:46:00,
2013-03-08 03:51:00,36.3,34.5,30.15,NNW,330,0.0,0.0,93,0.00,,,0.14,Wunderground v.1.15,2013-03-08 11:51:00,
2013-03-08 03:56:00,36.2,34.4,30.15,NNW,330,0.0,0.0,93,0.00,,,0.14,Wunderground v.1.15,2013-03-08 11:56:00,
2013-03-08 04:01:00,36.1,34.3,30.15,NNW,330,0.0,0.0,93,0.00,,,0.14,Wunderground v.1.15,2013-03-08 12:01:00,
2013-03-08 04:06:00,35.9,34.1,30.15,NNW,330,0.0,0.0,93,0.00,,,0.14,Wunderground v.1.15,2013-03-08 12:06:00,
2013-03-08 04:11:00,35.8,34.0,30.15,NNW,330,0.0,0.0,93,0.00,,,0.14,Wunderground v.1.15,2013-03-08 12:11:00,
2013-03-08 04:16:00,35.8,34.0,30.15,NNW,330,0.0,0.0,93,0.00,,,0.14,Wunderground v.1.15,2013-03-08 12:16:00,
2013-03-08 04:21:00,35.9,34.1,30.15,NNW,330,0.0,0.0,93,0.00,,,0.14,Wunderground v.1.15,2013-03-08 12:21:00,
2013-03-08 04:26:00,35.9,34.1,30.16,NNW,331,0.0,0.0,93,0.00,,,0.14,Wunderground v.1.15,2013-03-08 12:26:00,
2013-03-08 04:31:00,35.9,34.1,30.16,NW,324,0.0,4.0,93,0.00,,,0.14,Wunderground v.1.15,2013-03-08 12:31:00,
2013-03-08 04:36:00,35.9,34.1,30.16,NW,324,0.0,4.0,93,0.00,,,0.14,Wunderground v.1.15,2013-03-08 12:36:00,
2013-03-08 04:41:00,35.9,34.3,30.16,NW,326,0.0,0.0,94,0.00,,,0.14,Wunderground v.1.15,2013-03-08 12:41:00,
2013-03-08 04:46:00,35.8,34.2,30.16,NNW,327,0.0,0.0,94,0.00,,,0.14,Wunderground v.1.15,2013-03-08 12:46:00,
2013-03-08 04:51:00,35.8,34.2,30.17,NNW,329,0.0,2.0,94,0.00,,,0.00,Wunderground v.1.15,2013-03-08 12:51:00,
2013-03-08 04:57:00,35.7,34.1,30.17,NNW,328,0.0,2.0,94,0.00,,,0.00,Wunderground v.1.15,2013-03-08 12:57:00,
2013-03-08 05:01:00,35.7,34.1,30.17,NNW,334,0.0,3.0,94,0.00,,,0.00,Wunderground v.1.15,2013-03-08 13:01:00,
2013-03-08 05:06:00,35.8,34.2,30.17,NNW,331,0.0,3.0,94,0.00,,,0.00,Wunderground v.1.15,2013-03-08 13:06:00,
2013-03-08 05:11:00,35.8,34.2,30.17,NNW,338,0.0,0.0,94,0.00,,,0.00,Wunderground v.1.15,2013-03-08 13:11:00,
2013-03-08 05:16:00,35.8,34.2,30.17,NNW,339,0.0,0.0,94,0.00,,,0.00,Wunderground v.1.15,2013-03-08 13:16:00,
2013-03-08 05:21:00,35.8,34.2,30.17,North,355,0.0,3.0,94,0.00,,,0.00,Wunderground v.1.15,2013-03-08 13:21:00,
2013-03-08 05:26:00,35.9,34.3,30.17,North,5,0.0,3.0,94,0.00,,,0.00,Wunderground v.1.15,2013-03-08 13:26:00,
2013-03-08 05:31:00,35.8,34.2,30.17,NE,49,0.0,2.0,94,0.00,,,0.00,Wunderground v.1.15,2013-03-08 13:31:00,
2013-03-08 05:36:00,35.6,34.0,30.17,NE,53,0.0,3.0,94,0.00,,,0.00,Wunderground v.1.15,2013-03-08 13:36:00,
2013-03-08 05:41:00,35.2,33.6,30.17,NE,53,0.0,0.0,94,0.00,,,0.00,Wunderground v.1.15,2013-03-08 13:41:00,
2013-03-08 05:47:00,35.0,33.4,30.17,NE,55,0.0,3.0,94,0.00,,,0.00,Wunderground v.1.15,2013-03-08 13:47:00,
2013-03-08 05:52:00,35.0,33.4,30.17,ENE,66,0.0,1.0,94,0.00,,,0.00,Wunderground v.1.15,2013-03-08 13:52:00,
2013-03-08 05:57:00,35.1,33.5,30.17,ENE,67,0.0,2.0,94,0.00,,,0.00,Wunderground v.1.15,2013-03-08 13:57:00,
2013-03-08 06:02:00,35.3,33.7,30.17,ENE,68,0.0,0.0,94,0.00,,,0.00,Wunderground v.1.15,2013-03-08 14:02:00,
2013-03-08 06:07:00,35.5,33.9,30.17,ENE,68,0.0,0.0,94,0.00,,,0.00,Wunderground v.1.15,2013-03-08 14:07:00,
2013-03-08 06:12:00,35.6,34.0,30.17,ENE,70,0.0,0.0,94,0.00,,,0.00,Wunderground v.1.15,2013-03-08 14:12:00,
2013-03-08 06:17:00,35.8,34.2,30.17,ENE,71,0.0,4.0,94,0.00,,,0.00,Wunderground v.1.15,2013-03-08 14:17:00,
2013-03-08 06:22:00,36.0,34.4,30.17,ENE,72,0.0,1.0,94,0.00,,,0.00,Wunderground v.1.15,2013-03-08 14:22:00,
2013-03-08 06:27:00,35.9,34.3,30.17,East,100,2.0,5.0,94,0.00,,,0.00,Wunderground v.1.15,2013-03-08 14:27:00,
2013-03-08 06:32:00,35.4,33.8,30.17,East,101,1.0,3.0,94,0.00,,,0.00,Wunderground v.1.15,2013-03-08 14:32:00,
2013-03-08 06:37:00,35.0,33.4,30.17,East,98,1.0,3.0,94,0.00,,,0.00,Wunderground v.1.15,2013-03-08 14:37:00,
2013-03-08 06:42:00,34.4,32.9,30.18,East,100,0.0,4.0,94,0.00,,,0.00,Wunderground v.1.15,2013-03-08 14:42:00,
2013-03-08 06:47:00,34.3,32.8,30.17,ESE,113,2.0,5.0,94,0.00,,,0.00,Wunderground v.1.15,2013-03-08 14:47:00,
2013-03-08 06:52:00,34.1,32.6,30.17,ESE,103,4.0,4.0,94,0.00,,,0.00,Wunderground v.1.15,2013-03-08 14:52:00,
2013-03-08 06:57:00,33.8,32.3,30.18,East,101,2.0,5.0,94,0.00,,,0.00,Wunderground v.1.15,2013-03-08 14:57:00,
2013-03-08 07:02:00,33.7,32.2,30.18,ESE,114,0.0,3.0,94,0.00,,,0.00,Wunderground v.1.15,2013-03-08 15:02:00,
2013-03-08 07:07:00,33.7,32.2,30.17,ESE,111,1.0,3.0,94,0.00,,,0.00,Wunderground v.1.15,2013-03-08 15:07:00,
2013-03-08 07:12:00,33.7,32.2,30.17,ESE,109,0.0,3.0,94,0.00,,,0.00,Wunderground v.1.15,2013-03-08 15:12:00,
2013-03-08 07:17:00,33.7,32.2,30.17,SE,126,1.0,3.0,94,0.00,,,0.00,Wunderground v.1.15,2013-03-08 15:17:00,
2013-03-08 07:22:00,33.7,32.2,30.17,SE,125,0.0,3.0,94,0.00,,,0.00,Wunderground v.1.15,2013-03-08 15:22:00,
2013-03-08 07:27:00,33.8,32.3,30.18,ESE,117,0.0,4.0,94,0.00,,,0.00,Wunderground v.1.15,2013-03-08 15:27:00,
2013-03-08 07:32:00,33.8,32.3,30.18,ESE,117,0.0,2.0,94,0.00,,,0.00,Wunderground v.1.15,2013-03-08 15:32:00,
2013-03-08 07:37:00,33.8,32.3,30.18,ESE,116,0.0,3.0,94,0.00,,,0.00,Wunderground v.1.15,2013-03-08 15:37:00,
2013-03-08 07:42:00,33.9,32.4,30.18,ESE,116,0.0,2.0,94,0.00,,,0.00,Wunderground v.1.15,2013-03-08 15:42:00,
2013-03-08 07:47:00,34.0,32.5,30.19,ESE,116,0.0,2.0,94,0.00,,,0.00,Wunderground v.1.15,2013-03-08 15:47:00,
2013-03-08 07:52:00,34.1,32.6,30.19,ESE,116,0.0,0.0,94,0.00,,,0.00,Wunderground v.1.15,2013-03-08 15:52:00,
2013-03-08 07:57:00,34.2,32.7,30.19,ESE,116,0.0,0.0,94,0.00,,,0.00,Wunderground v.1.15,2013-03-08 15:57:00,
2013-03-08 08:02:00,34.4,32.9,30.20,NW,316,1.0,7.0,94,0.00,,,0.00,Wunderground v.1.15,2013-03-08 16:02:00,
2013-03-08 08:07:00,34.4,32.9,30.20,NNE,19,4.0,7.0,94,0.00,,,0.00,Wunderground v.1.15,2013-03-08 16:07:00,
2013-03-08 08:12:00,34.4,32.9,30.20,NNW,348,2.0,6.0,94,0.00,,,0.00,Wunderground v.1.15,2013-03-08 16:12:00,
2013-03-08 08:17:00,34.4,32.9,30.20,NNE,20,4.0,6.0,94,0.00,,,0.00,Wunderground v.1.15,2013-03-08 16:17:00,
2013-03-08 08:22:00,34.4,32.9,30.20,North,11,0.0,2.0,94,0.00,,,0.00,Wunderground v.1.15,2013-03-08 16:22:00,
2013-03-08 08:27:00,34.4,32.9,30.20,ENE,74,0.0,2.0,94,0.00,,,0.00,Wunderground v.1.15,2013-03-08 16:27:00,
2013-03-08 08:32:00,34.4,32.9,30.20,East,86,0.0,0.0,94,0.00,,,0.00,Wunderground v.1.15,2013-03-08 16:32:00,
2013-03-08 08:37:00,34.4,32.9,30.20,ENE,77,0.0,3.0,94,0.00,,,0.00,Wunderground v.1.15,2013-03-08 16:37:00,
2013-03-08 08:42:00,34.4,32.9,30.20,ENE,71,0.0,0.0,94,0.00,,,0.00,Wunderground v.1.15,2013-03-08 16:42:00,
2013-03-08 08:47:00,34.4,32.9,30.20,ENE,65,0.0,0.0,94,0.00,,,0.00,Wunderground v.1.15,2013-03-08 16:47:00,
2013-03-08 08:52:00,34.4,32.9,30.21,ENE,63,0.0,0.0,94,0.00,,,0.00,Wunderground v.1.15,2013-03-08 16:52:00,
2013-03-08 08:57:00,34.4,32.9,30.20,East,81,0.0,0.0,94,0.00,,,0.00,Wunderground v.1.15,2013-03-08 16:57:00,
2013-03-08 09:02:00,34.7,33.2,30.21,East,80,0.0,0.0,94,0.00,,,0.00,Wunderground v.1.15,2013-03-08 17:02:00,
2013-03-08 09:07:00,34.8,33.5,30.21,East,80,0.0,0.0,95,0.00,,,0.00,Wunderground v.1.15,2013-03-08 17:07:00,
2013-03-08 09:12:00,35.0,33.7,30.21,East,80,0.0,0.0,95,0.00,,,0.00,Wunderground v.1.15,2013-03-08 17:12:00,
2013-03-08 09:17:00,35.2,33.9,30.21,East,80,0.0,0.0,95,0.00,,,0.00,Wunderground v.1.15,2013-03-08 17:17:00,
2013-03-08 09:22:00,35.6,34.3,30.20,East,89,0.0,0.0,95,0.00,,,0.00,Wunderground v.1.15,2013-03-08 17:22:00,
2013-03-08 09:27:00,35.8,34.5,30.20,East,89,0.0,0.0,95,0.00,,,0.00,Wunderground v.1.15,2013-03-08 17:27:00,
2013-03-08 09:32:00,36.0,34.7,30.21,East,93,0.0,0.0,95,0.00,,,0.00,Wunderground v.1.15,2013-03-08 17:32:00,
2013-03-08 09:37:00,36.2,34.9,30.21,East,93,0.0,0.0,95,0.00,,,0.00,Wunderground v.1.15,2013-03-08 17:37:00,
2013-03-08 09:43:00,36.6,35.3,30.21,East,93,0.0,0.0,95,0.00,,,0.00,Wunderground v.1.15,2013-03-08 17:43:00,
2013-03-08 09:48:00,37.0,35.7,30.21,East,98,0.0,0.0,95,0.00,,,0.00,Wunderground v.1.15,2013-03-08 17:48:00,
2013-03-08 09:53:00,37.4,36.1,30.21,East,101,0.0,0.0,95,0.00,,,0.00,Wunderground v.1.15,2013-03-08 17:53:00,
2013-03-08 09:58:00,37.7,36.4,30.21,ESE,121,0.0,0.0,95,0.00,,,0.00,Wunderground v.1.15,2013-03-08 17:58:00,
2013-03-08 10:03:00,37.9,36.6,30.21,ESE,123,0.0,0.0,95,0.00,,,0.00,Wunderground v.1.15,2013-03-08 18:03:00,
2013-03-08 10:08:00,38.2,36.9,30.21,SE,125,0.0,0.0,95,0.00,,,0.00,Wunderground v.1.15,2013-03-08 18:08:00,
2013-03-08 10:13:00,38.6,37.3,30.21,ESE,121,0.0,0.0,95,0.00,,,0.00,Wunderground v.1.15,2013-03-08 18:13:00,
2013-03-08 10:18:00,39.2,37.9,30.20,ESE,122,0.0,0.0,95,0.00,,,0.00,Wunderground v.1.15,2013-03-08 18:18:00,
2013-03-08 10:23:00,39.6,38.3,30.20,SSE,159,0.0,0.0,95,0.00,,,0.00,Wunderground v.1.15,2013-03-08 18:23:00,
2013-03-08 10:28:00,40.1,38.8,30.20,SSE,168,0.0,2.0,95,0.00,,,0.00,Wunderground v.1.15,2013-03-08 18:28:00,
2013-03-08 10:33:00,40.4,39.1,30.20,South,190,0.0,1.0,95,0.00,,,0.00,Wunderground v.1.15,2013-03-08 18:33:00,
2013-03-08 10:38:00,40.6,39.3,30.20,SSW,194,0.0,1.0,95,0.00,,,0.00,Wunderground v.1.15,2013-03-08 18:38:00,
2013-03-08 10:43:00,40.8,39.5,30.19,SSW,194,0.0,0.0,95,0.00,,,0.00,Wunderground v.1.15,2013-03-08 18:43:00,
2013-03-08 10:48:00,41.1,39.8,30.20,SSW,194,0.0,0.0,95,0.00,,,0.00,Wunderground v.1.15,2013-03-08 18:48:00,
2013-03-08 10:53:00,41.5,40.2,30.20,SSW,194,0.0,1.0,95,0.00,,,0.00,Wunderground v.1.15,2013-03-08 18:53:00,
2013-03-08 10:58:00,42.1,40.8,30.20,SSW,194,0.0,1.0,95,0.00,,,0.00,Wunderground v.1.15,2013-03-08 18:58:00,
2013-03-08 11:04:00,42.7,41.4,30.20,SSE,151,1.0,2.0,95,0.00,,,0.00,Wunderground v.1.15,2013-03-08 19:04:00,
2013-03-08 11:09:00,43.3,42.0,30.19,SSE,148,0.0,2.0,95,0.00,,,0.00,Wunderground v.1.15,2013-03-08 19:09:00,
2013-03-08 11:14:00,43.8,42.2,30.19,SE,131,0.0,0.0,94,0.00,,,0.00,Wunderground v.1.15,2013-03-08 19:14:00,
2013-03-08 11:19:00,44.1,41.9,30.19,SE,129,0.0,0.0,92,0.00,,,0.00,Wunderground v.1.15,2013-03-08 19:19:00,
2013-03-08 11:24:00,44.5,41.7,30.19,SE,126,0.0,0.0,90,0.00,,,0.00,Wunderground v.1.15,2013-03-08 19:24:00,
2013-03-08 11:29:00,44.8,41.2,30.19,SE,128,2.0,2.0,87,0.00,,,0.00,Wunderground v.1.15,2013-03-08 19:29:00,
2013-03-08 11:34:00,45.1,40.9,30.19,SE,126,0.0,2.0,85,0.00,,,0.00,Wunderground v.1.15,2013-03-08 19:34:00,
2013-03-08 11:39:00,45.5,40.9,30.19,SE,125,0.0,2.0,84,0.00,,,0.00,Wunderground v.1.15,2013-03-08 19:39:00,
2013-03-08 11:44:00,46.1,41.2,30.19,SE,128,0.0,0.0,83,0.00,,,0.00,Wunderground v.1.15,2013-03-08 19:44:00,
2013-03-08 11:49:00,46.8,41.3,30.19,SE,125,0.0,0.0,81,0.00,,,0.00,Wunderground v.1.15,2013-03-08 19:49:00,
2013-03-08 11:54:00,47.3,41.1,30.18,SE,124,0.0,0.0,79,0.00,,,0.00,Wunderground v.1.15,2013-03-08 19:54:00,
2013-03-08 11:59:00,47.8,41.6,30.18,SE,126,0.0,0.0,79,0.00,,,0.00,Wunderground v.1.15,2013-03-08 19:59:00,
2013-03-08 12:04:00,48.4,41.5,30.18,SE,125,0.0,0.0,77,0.00,,,0.00,Wunderground v.1.15,2013-03-08 20:04:00,
2013-03-08 12:09:00,49.0,41.4,30.18,ESE,121,0.0,2.0,75,0.00,,,0.00,Wunderground v.1.15,2013-03-08 20:09:00,
2013-03-08 12:14:00,49.7,41.7,30.18,SE,144,1.0,1.0,74,0.00,,,0.00,Wunderground v.1.15,2013-03-08 20:14:00,
2013-03-08 12:19:00,50.0,41.7,30.18,SE,143,0.0,1.0,73,0.00,,,0.00,Wunderground v.1.15,2013-03-08 20:19:00,
2013-03-08 12:24:00,50.4,41.0,30.18,SSE,159,2.0,2.0,70,0.00,,,0.00,Wunderground v.1.15,2013-03-08 20:24:00,
2013-03-08 12:29:00,50.9,41.5,30.18,SSE,159,0.0,2.0,70,0.00,,,0.00,Wunderground v.1.15,2013-03-08 20:29:00,
2013-03-08 12:34:00,51.2,41.0,30.18,SSE,158,0.0,2.0,68,0.00,,,0.00,Wunderground v.1.15,2013-03-08 20:34:00,
2013-03-08 12:39:00,51.4,41.2,30.18,SSE,159,0.0,2.0,68,0.00,,,0.00,Wunderground v.1.15,2013-03-08 20:39:00,
2013-03-08 12:44:00,51.4,41.2,30.18,South,169,0.0,2.0,68,0.00,,,0.00,Wunderground v.1.15,2013-03-08 20:44:00,
2013-03-08 12:49:00,51.6,41.4,30.18,SSE,157,0.0,2.0,68,0.00,,,0.00,Wunderground v.1.15,2013-03-08 20:49:00,
2013-03-08 12:54:00,51.5,41.3,30.18,SSE,151,2.0,3.0,68,0.00,,,0.00,Wunderground v.1.15,2013-03-08 20:54:00,
2013-03-08 12:59:00,51.4,41.2,30.18,SSE,152,0.0,3.0,68,0.00,,,0.00,Wunderground v.1.15,2013-03-08 20:59:00,
2013-03-08 13:04:00,51.9,41.3,30.17,SW,233,0.0,3.0,67,0.00,,,0.00,Wunderground v.1.15,2013-03-08 21:04:00,
2013-03-08 13:09:00,52.3,40.9,30.17,WSW,247,2.0,4.0,65,0.00,,,0.00,Wunderground v.1.15,2013-03-08 21:09:00,
2013-03-08 13:14:00,52.6,40.4,30.17,WSW,247,0.0,3.0,63,0.00,,,0.00,Wunderground v.1.15,2013-03-08 21:14:00,
2013-03-08 13:19:00,53.0,41.1,30.17,WSW,247,3.0,3.0,64,0.00,,,0.00,Wunderground v.1.15,2013-03-08 21:19:00,
2013-03-08 13:24:00,53.1,40.8,30.17,WSW,248,3.0,4.0,63,0.00,,,0.00,Wunderground v.1.15,2013-03-08 21:24:00,
2013-03-08 13:29:00,53.0,41.5,30.17,NW,311,4.0,6.0,65,0.00,,,0.00,Wunderground v.1.15,2013-03-08 21:29:00,
2013-03-08 13:34:00,53.0,41.1,30.17,NW,325,1.0,6.0,64,0.00,,,0.00,Wunderground v.1.15,2013-03-08 21:34:00,
2013-03-08 13:39:00,52.9,41.8,30.17,NNW,348,1.0,4.0,66,0.00,,,0.00,Wunderground v.1.15,2013-03-08 21:39:00,
2013-03-08 13:44:00,52.8,42.1,30.17,North,350,7.0,7.0,67,0.00,,,0.00,Wunderground v.1.15,2013-03-08 21:44:00,
2013-03-08 13:49:00,52.6,41.9,30.17,NW,307,4.0,5.0,67,0.00,,,0.00,Wunderground v.1.15,2013-03-08 21:49:00,
2013-03-08 13:54:00,52.7,42.4,30.17,NNW,340,4.0,9.0,68,0.00,,,0.00,Wunderground v.1.15,2013-03-08 21:54:00,
2013-03-08 13:59:00,52.6,42.3,30.17,NNW,342,9.0,9.0,68,0.00,,,0.00,Wunderground v.1.15,2013-03-08 21:59:00,
2013-03-08 14:04:00,52.1,42.2,30.17,NNW,343,6.0,12.0,69,0.00,,,0.00,Wunderground v.1.15,2013-03-08 22:04:00,
2013-03-08 14:09:00,51.7,41.9,30.17,NNW,337,4.0,10.0,69,0.00,,,0.00,Wunderground v.1.15,2013-03-08 22:09:00,
2013-03-08 14:14:00,51.3,42.2,30.17,WNW,296,1.0,11.0,71,0.00,,,0.00,Wunderground v.1.15,2013-03-08 22:14:00,
2013-03-08 14:19:00,51.2,42.1,30.17,NNW,340,4.0,6.0,71,0.00,,,0.00,Wunderground v.1.15,2013-03-08 22:19:00,
2013-03-08 14:24:00,51.1,42.0,30.17,NNW,347,5.0,11.0,71,0.00,,,0.00,Wunderground v.1.15,2013-03-08 22:24:00,
2013-03-08 14:30:00,50.9,41.8,30.17,NW,321,6.0,7.0,71,0.00,,,0.00,Wunderground v.1.15,2013-03-08 22:30:00,
2013-03-08 14:35:00,50.9,41.8,30.17,North,350,6.0,10.0,71,0.00,,,0.00,Wunderground v.1.15,2013-03-08 22:35:00,
2013-03-08 14:40:00,50.8,41.7,30.17,North,355,5.0,7.0,71,0.00,,,0.00,Wunderground v.1.15,2013-03-08 22:40:00,
2013-03-08 14:45:00,50.9,41.8,30.17,North,355,7.0,10.0,71,0.00,,,0.00,Wunderground v.1.15,2013-03-08 22:45:00,
2013-03-08 14:50:00,50.9,41.8,30.18,NW,314,4.0,7.0,71,0.00,,,0.00,Wunderground v.1.15,2013-03-08 22:50:00,
2013-03-08 14:55:00,51.1,42.4,30.18,North,355,9.0,9.0,72,0.00,,,0.00,Wunderground v.1.15,2013-03-08 22:55:00,
2013-03-08 15:00:00,51.1,42.4,30.18,NNW,340,10.0,10.0,72,0.00,,,0.00,Wunderground v.1.15,2013-03-08 23:00:00,
2013-03-08 15:05:00,50.9,42.2,30.18,NNW,333,4.0,10.0,72,0.00,,,0.00,Wunderground v.1.15,2013-03-08 23:05:00,
2013-03-08 15:10:00,50.9,42.6,30.18,WNW,285,8.0,10.0,73,0.00,,,0.00,Wunderground v.1.15,2013-03-08 23:10:00,
2013-03-08 15:15:00,50.7,42.4,30.18,NNW,335,5.0,10.0,73,0.00,,,0.00,Wunderground v.1.15,2013-03-08 23:15:00,
2013-03-08 15:20:00,50.6,41.9,30.18,NNE,15,3.0,7.0,72,0.00,,,0.00,Wunderground v.1.15,2013-03-08 23:20:00,
2013-03-08 15:25:00,50.5,42.2,30.18,North,11,6.0,10.0,73,0.00,,,0.00,Wunderground v.1.15,2013-03-08 23:25:00,
2013-03-08 15:30:00,50.4,41.3,30.19,NNW,331,2.0,9.0,71,0.00,,,0.00,Wunderground v.1.15,2013-03-08 23:30:00,
2013-03-08 15:35:00,50.3,41.6,30.19,NNE,15,5.0,10.0,72,0.00,,,0.00,Wunderground v.1.15,2013-03-08 23:35:00,
2013-03-08 15:40:00,50.2,41.5,30.19,North,355,5.0,10.0,72,0.00,,,0.00,Wunderground v.1.15,2013-03-08 23:40:00,
2013-03-08 15:45:00,50.2,41.9,30.18,North,10,6.0,11.0,73,0.00,,,0.00,Wunderground v.1.15,2013-03-08 23:45:00,
2013-03-08 15:50:00,50.0,42.7,30.18,NW,323,3.0,7.0,76,0.00,,,0.00,Wunderground v.1.15,2013-03-08 23:50:00,
2013-03-08 15:55:00,49.9,41.9,30.18,North,355,8.0,10.0,74,0.00,,,0.00,Wunderground v.1.15,2013-03-08 23:55:00,
2013-03-08 16:00:00,49.7,41.7,30.18,NNW,327,10.0,10.0,74,0.00,,,0.00,Wunderground v.1.15,2013-03-09 00:00:00,
2013-03-08 16:05:00,49.5,41.6,30.19,NW,322,6.0,11.0,74,0.00,,,0.00,Wunderground v.1.15,2013-03-09 00:05:00,
2013-03-08 16:10:00,49.4,41.5,30.19,NNE,22,5.0,10.0,74,0.00,,,0.00,Wunderground v.1.15,2013-03-09 00:10:00,
2013-03-08 16:15:00,49.3,41.7,30.19,North,5,8.0,10.0,75,0.00,,,0.00,Wunderground v.1.15,2013-03-09 00:15:00,
2013-03-08 16:20:00,49.2,41.3,30.19,NNW,346,3.0,9.0,74,0.00,,,0.00,Wunderground v.1.15,2013-03-09 00:20:00,
2013-03-08 16:25:00,49.2,41.3,30.19,NNW,345,6.0,11.0,74,0.00,,,0.00,Wunderground v.1.15,2013-03-09 00:25:00,
2013-03-08 16:30:00,49.2,41.3,30.19,NW,311,6.0,9.0,74,0.00,,,0.00,Wunderground v.1.15,2013-03-09 00:30:00,
2013-03-08 16:35:00,49.2,41.6,30.19,North,9,7.0,11.0,75,0.00,,,0.00,Wunderground v.1.15,2013-03-09 00:35:00,
2013-03-08 16:40:00,49.1,41.9,30.19,NNW,327,7.0,9.0,76,0.00,,,0.00,Wunderground v.1.15,2013-03-09 00:40:00,
2013-03-08 16:45:00,48.9,41.3,30.19,WNW,286,5.0,12.0,75,0.00,,,0.00,Wunderground v.1.15,2013-03-09 00:45:00,
2013-03-08 16:50:00,48.9,41.3,30.19,WNW,284,3.0,10.0,75,0.00,,,0.00,Wunderground v.1.15,2013-03-09 00:50:00,
2013-03-08 16:55:00,48.8,41.2,30.19,North,355,9.0,11.0,75,0.00,,,0.00,Wunderground v.1.15,2013-03-09 00:55:00,
2013-03-08 17:00:00,48.6,41.0,30.20,North,360,9.0,11.0,75,0.00,,,0.00,Wunderground v.1.15,2013-03-09 01:00:00,
2013-03-08 17:05:00,48.3,40.7,30.20,NW,310,11.0,11.0,75,0.00,,,0.00,Wunderground v.1.15,2013-03-09 01:05:00,
2013-03-08 17:10:00,48.1,40.5,30.20,NNW,336,11.0,12.0,75,0.00,,,0.00,Wunderground v.1.15,2013-03-09 01:10:00,
2013-03-08 17:15:00,48.1,40.5,30.20,North,5,6.0,12.0,75,0.00,,,0.00,Wunderground v.1.15,2013-03-09 01:15:00,
2013-03-08 17:20:00,48.0,40.5,30.21,NW,316,12.0,12.0,75,0.00,,,0.00,Wunderground v.1.15,2013-03-09 01:20:00,
2013-03-08 17:25:00,47.9,40.7,30.21,North,5,6.0,12.0,76,0.00,,,0.00,Wunderground v.1.15,2013-03-09 01:25:00,
2013-03-08 17:30:00,47.7,40.5,30.21,NNW,333,7.0,9.0,76,0.00,,,0.00,Wunderground v.1.15,2013-03-09 01:30:00,
2013-03-08 17:35:00,47.5,40.3,30.21,North,9,8.0,10.0,76,0.00,,,0.00,Wunderground v.1.15,2013-03-09 01:35:00,
2013-03-08 17:40:00,47.3,40.5,30.21,NW,325,5.0,9.0,77,0.00,,,0.00,Wunderground v.1.15,2013-03-09 01:40:00,
2013-03-08 17:45:00,47.0,40.2,30.21,North,350,0.0,11.0,77,0.00,,,0.00,Wunderground v.1.15,2013-03-09 01:45:00,
2013-03-08 17:50:00,46.9,40.1,30.21,NW,317,4.0,10.0,77,0.00,,,0.00,Wunderground v.1.15,2013-03-09 01:50:00,
2013-03-08 17:55:00,46.7,40.2,30.22,NW,319,5.0,10.0,78,0.00,,,0.00,Wunderground v.1.15,2013-03-09 01:55:00,
2013-03-08 18:00:00,46.5,40.0,30.22,NW,323,6.0,11.0,78,0.00,,,0.00,Wunderground v.1.15,2013-03-09 02:00:00,
2013-03-08 18:05:00,46.4,39.9,30.22,NW,305,4.0,11.0,78,0.00,,,0.00,Wunderground v.1.15,2013-03-09 02:05:00,
2013-03-08 18:10:00,46.3,39.8,30.22,North,5,5.0,7.0,78,0.00,,,0.00,Wunderground v.1.15,2013-03-09 02:10:00,
2013-03-08 18:15:00,46.1,39.9,30.22,NW,320,2.0,7.0,79,0.00,,,0.00,Wunderground v.1.15,2013-03-09 02:15:00,
2013-03-08 18:21:00,45.9,39.8,30.22,NNW,331,5.0,6.0,79,0.00,,,0.00,Wunderground v.1.15,2013-03-09 02:21:00,
2013-03-08 18:26:00,45.8,39.7,30.22,NNW,337,3.0,7.0,79,0.00,,,0.00,Wunderground v.1.15,2013-03-09 02:26:00,
2013-03-08 18:31:00,45.6,39.5,30.23,NW,311,0.0,5.0,79,0.00,,,0.00,Wunderground v.1.15,2013-03-09 02:31:00,
2013-03-08 18:36:00,45.4,39.3,30.23,WNW,301,4.0,6.0,79,0.00,,,0.00,Wunderground v.1.15,2013-03-09 02:36:00,
2013-03-08 18:41:00,45.2,39.4,30.23,NNW,338,4.0,5.0,80,0.00,,,0.00,Wunderground v.1.15,2013-03-09 02:41:00,
2013-03-08 18:46:00,45.0,39.2,30.24,North,355,3.0,5.0,80,0.00,,,0.00,Wunderground v.1.15,2013-03-09 02:46:00,
2013-03-08 18:51:00,44.9,39.1,30.24,NW,322,4.0,4.0,80,0.00,,,0.00,Wunderground v.1.15,2013-03-09 02:51:00,
2013-03-08 18:56:00,44.6,39.1,30.24,NNW,328,3.0,6.0,81,0.00,,,0.00,Wunderground v.1.15,2013-03-09 02:56:00,
2013-03-08 19:01:00,44.4,38.9,30.24,NW,304,4.0,5.0,81,0.00,,,0.00,Wunderground v.1.15,2013-03-09 03:01:00,
2013-03-08 19:06:00,44.3,38.8,30.24,North,355,5.0,6.0,81,0.00,,,0.00,Wunderground v.1.15,2013-03-09 03:06:00,
2013-03-08 19:11:00,44.2,38.7,30.25,NNW,328,5.0,9.0,81,0.00,,,0.00,Wunderground v.1.15,2013-03-09 03:11:00,
2013-03-08 19:16:00,44.1,38.6,30.25,NW,310,3.0,9.0,81,0.00,,,0.00,Wunderground v.1.15,2013-03-09 03:16:00,
2013-03-08 19:21:00,44.0,38.5,30.25,NW,307,0.0,4.0,81,0.00,,,0.00,Wunderground v.1.15,2013-03-09 03:21:00,
2013-03-08 19:26:00,44.0,38.5,30.25,NNW,327,1.0,6.0,81,0.00,,,0.00,Wunderground v.1.15,2013-03-09 03:26:00,
2013-03-08 19:31:00,43.9,38.4,30.25,NW,323,3.0,5.0,81,0.00,,,0.00,Wunderground v.1.15,2013-03-09 03:31:00,
2013-03-08 19:36:00,43.8,38.3,30.25,NW,308,2.0,6.0,81,0.00,,,0.00,Wunderground v.1.15,2013-03-09 03:36:00,
2013-03-08 19:41:00,43.7,38.3,30.25,NW,313,2.0,6.0,81,0.00,,,0.00,Wunderground v.1.15,2013-03-09 03:41:00,
2013-03-08 19:46:00,43.6,38.2,30.25,NW,322,3.0,6.0,81,0.00,,,0.00,Wunderground v.1.15,2013-03-09 03:46:00,
2013-03-08 19:51:00,43.5,38.1,30.25,NNW,333,2.0,4.0,81,0.00,,,0.00,Wunderground v.1.15,2013-03-09 03:51:00,
2013-03-08 19:56:00,43.4,38.3,30.26,North,360,1.0,5.0,82,0.00,,,0.00,Wunderground v.1.15,2013-03-09 03:56:00,
2013-03-08 20:01:00,43.3,38.2,30.26,NNW,348,0.0,1.0,82,0.00,,,0.00,Wunderground v.1.15,2013-03-09 04:01:00,
2013-03-08 20:06:00,43.2,38.1,30.26,NNW,334,0.0,3.0,82,0.00,,,0.00,Wunderground v.1.15,2013-03-09 04:06:00,
2013-03-08 20:11:00,43.1,38.0,30.26,NNW,341,0.0,3.0,82,0.00,,,0.00,Wunderground v.1.15,2013-03-09 04:11:00,
2013-03-08 20:16:00,42.9,37.8,30.26,NNW,338,0.0,3.0,82,0.00,,,0.00,Wunderground v.1.15,2013-03-09 04:16:00,
2013-03-08 20:21:00,42.9,37.8,30.26,NNW,332,2.0,3.0,82,0.00,,,0.00,Wunderground v.1.15,2013-03-09 04:21:00,
2013-03-08 20:26:00,42.8,37.7,30.27,NNW,340,0.0,3.0,82,0.00,,,0.00,Wunderground v.1.15,2013-03-09 04:26:00,
2013-03-08 20:31:00,42.6,37.5,30.27,NNW,338,0.0,1.0,82,0.00,,,0.00,Wunderground v.1.15,2013-03-09 04:31:00,
2013-03-08 20:36:00,42.6,37.5,30.27,NNW,329,0.0,1.0,82,0.00,,,0.00,Wunderground v.1.15,2013-03-09 04:36:00,
2013-03-08 20:41:00,42.5,37.7,30.27,NNW,332,0.0,0.0,83,0.00,,,0.00,Wunderground v.1.15,2013-03-09 04:41:00,
2013-03-08 20:46:00,42.4,37.6,30.27,NNW,333,0.0,0.0,83,0.00,,,0.00,Wunderground v.1.15,2013-03-09 04:46:00,
2013-03-08 20:51:00,42.3,37.5,30.27,NNW,336,0.0,0.0,83,0.00,,,0.00,Wunderground v.1.15,2013-03-09 04:51:00,
2013-03-08 20:56:00,42.2,37.4,30.27,NNW,336,0.0,0.0,83,0.00,,,0.00,Wunderground v.1.15,2013-03-09 04:56:00,
2013-03-08 21:00:00,42.2,37.4,30.27,NNW,336,0.0,0.0,83,0.00,,,0.00,Wunderground v.1.15,2013-03-09 05:00:00,
2013-03-08 21:06:00,42.0,37.2,30.27,NNW,336,0.0,0.0,83,0.00,,,0.00,Wunderground v.1.15,2013-03-09 05:06:00,
2013-03-08 21:11:00,41.9,37.1,30.27,NNW,336,0.0,0.0,83,0.00,,,0.00,Wunderground v.1.15,2013-03-09 05:11:00,
2013-03-08 21:16:00,41.7,36.9,30.28,NNW,336,0.0,0.0,83,0.00,,,0.00,Wunderground v.1.15,2013-03-09 05:16:00,
2013-03-08 21:21:00,41.5,37.0,30.28,NNW,336,0.0,0.0,84,0.00,,,0.00,Wunderground v.1.15,2013-03-09 05:21:00,
2013-03-08 21:26:00,41.4,36.9,30.28,NNW,336,0.0,0.0,84,0.00,,,0.00,Wunderground v.1.15,2013-03-09 05:26:00,
2013-03-08 21:31:00,41.2,36.7,30.28,NNW,336,0.0,0.0,84,0.00,,,0.00,Wunderground v.1.15,2013-03-09 05:31:00,
2013-03-08 21:36:00,41.0,36.5,30.28,NNW,336,0.0,0.0,84,0.00,,,0.00,Wunderground v.1.15,2013-03-09 05:36:00,
2013-03-08 21:41:00,40.9,36.4,30.28,NNW,336,0.0,0.0,84,0.00,,,0.00,Wunderground v.1.15,2013-03-09 05:41:00,
2013-03-08 21:46:00,40.7,36.2,30.28,NNW,336,0.0,0.0,84,0.00,,,0.00,Wunderground v.1.15,2013-03-09 05:46:00,
2013-03-08 21:51:00,40.5,36.0,30.28,NNW,336,0.0,0.0,84,0.00,,,0.00,Wunderground v.1.15,2013-03-09 05:51:00,
2013-03-08 21:56:00,40.1,35.7,30.28,WNW,293,0.0,0.0,84,0.00,,,0.00,Wunderground v.1.15,2013-03-09 05:56:00,
2013-03-08 22:01:00,39.7,35.3,30.28,WNW,292,0.0,0.0,84,0.00,,,0.00,Wunderground v.1.15,2013-03-09 06:01:00,
2013-03-08 22:06:00,39.5,35.4,30.29,WNW,292,0.0,0.0,85,0.00,,,0.00,Wunderground v.1.15,2013-03-09 06:06:00,
2013-03-08 22:11:00,39.4,35.3,30.29,WNW,292,0.0,0.0,85,0.00,,,0.00,Wunderground v.1.15,2013-03-09 06:11:00,
2013-03-08 22:16:00,39.3,35.5,30.29,WNW,292,0.0,0.0,86,0.00,,,0.00,Wunderground v.1.15,2013-03-09 06:16:00,
2013-03-08 22:21:00,39.3,35.5,30.29,WNW,292,0.0,0.0,86,0.00,,,0.00,Wunderground v.1.15,2013-03-09 06:21:00,
2013-03-08 22:26:00,39.2,35.7,30.29,WNW,294,0.0,0.0,87,0.00,,,0.00,Wunderground v.1.15,2013-03-09 06:26:00,
2013-03-08 22:32:00,39.2,35.7,30.29,WNW,296,0.0,0.0,87,0.00,,,0.00,Wunderground v.1.15,2013-03-09 06:32:00,
2013-03-08 22:37:00,39.1,35.8,30.29,WNW,300,0.0,0.0,88,0.00,,,0.00,Wunderground v.1.15,2013-03-09 06:37:00,
2013-03-08 22:42:00,39.1,35.8,30.29,NW,304,0.0,0.0,88,0.00,,,0.00,Wunderground v.1.15,2013-03-09 06:42:00,
2013-03-08 22:47:00,39.0,35.7,30.30,NW,316,0.0,0.0,88,0.00,,,0.00,Wunderground v.1.15,2013-03-09 06:47:00,
2013-03-08 22:52:00,38.9,35.9,30.30,NNW,332,0.0,0.0,89,0.00,,,0.00,Wunderground v.1.15,2013-03-09 06:52:00,
2013-03-08 22:57:00,38.9,35.9,30.30,NNW,327,0.0,0.0,89,0.00,,,0.00,Wunderground v.1.15,2013-03-09 06:57:00,
2013-03-08 23:02:00,38.8,35.8,30.30,NNW,330,0.0,0.0,89,0.00,,,0.00,Wunderground v.1.15,2013-03-09 07:02:00,
2013-03-08 23:07:00,38.7,35.7,30.30,NNW,329,0.0,2.0,89,0.00,,,0.00,Wunderground v.1.15,2013-03-09 07:07:00,
2013-03-08 23:12:00,38.6,35.6,30.30,NW,317,2.0,2.0,89,0.00,,,0.00,Wunderground v.1.15,2013-03-09 07:12:00,
2013-03-08 23:17:00,38.4,35.4,30.30,NW,307,0.0,2.0,89,0.00,,,0.00,Wunderground v.1.15,2013-03-09 07:17:00,
2013-03-08 23:22:00,38.3,35.6,30.30,NW,322,0.0,0.0,90,0.00,,,0.00,Wunderground v.1.15,2013-03-09 07:22:00,
2013-03-08 23:27:00,38.2,35.5,30.30,NNW,328,0.0,3.0,90,0.00,,,0.00,Wunderground v.1.15,2013-03-09 07:27:00,
2013-03-08 23:32:00,38.2,35.5,30.30,NW,312,0.0,2.0,90,0.00,,,0.00,Wunderground v.1.15,2013-03-09 07:32:00,
2013-03-08 23:37:00,38.0,35.3,30.30,NW,307,1.0,3.0,90,0.00,,,0.00,Wunderground v.1.15,2013-03-09 07:37:00,
2013-03-08 23:42:00,38.0,35.3,30.31,NW,315,0.0,0.0,90,0.00,,,0.00,Wunderground v.1.15,2013-03-09 07:42:00,
2013-03-08 23:47:00,37.9,35.2,30.31,NW,313,0.0,2.0,90,0.00,,,0.00,Wunderground v.1.15,2013-03-09 07:47:00,
2013-03-08 23:52:00,37.8,35.1,30.31,NW,306,0.0,3.0,90,0.00,,,0.00,Wunderground v.1.15,2013-03-09 07:52:00,
2013-03-08 23:57:00,37.8,35.1,30.31,NW,309,0.0,3.0,90,0.00,,,0.00,Wunderground v.1.15,2013-03-09 07:57:00,